Portland, ME

11:29 AM EDT on July 28, 2017 (GMT -0400)
Portland International

Weather History for KPWM - July, 2014

Change the Weather History Date:

Friday, July 4, 2014

  Actual Average Record
Temperature  
Mean Temperature 68 °F 68 °F  
Max Temperature 73 °F 78 °F 90 °F (2002)
Min Temperature 63 °F 58 °F 42 °F (1962)
Degree Days  
Heating Degree Days 0 1  
Month to date heating degree days 0 4  
Since 1 June heating degree days 77 110  
Since 1 July heating degree days 0 4  
Cooling Degree Days 3 4  
Month to date cooling degree days 32 16  
Year to date cooling degree days 88 80  
Since 1 June cooling degree days 88 73  
Growing Degree Days 18 (Base 50)    
Moisture  
Dew Point 65 °F    
Average Humidity 83    
Maximum Humidity 93    
Minimum Humidity 73    
Precipitation  
Precipitation 1.41 in 0.11 in 1.41 in (2014)
Month to date precipitation 2.41 0.43  
Year to date precipitation 25.93 23.42  
Snow  
Snow 0.00 in 0.00 in 0.00 in (2002)
Month to date snowfall 0.0 0.0  
Since 1 June snowfall 0.0 0.0  
Since 1 July snowfall 0.0 0.0  
Snow Depth 0.00 in    
Sea Level Pressure  
Sea Level Pressure 29.93 in    
Wind  
Wind Speed 6 mph (South)    
Max Wind Speed 16 mph    
Max Gust Speed 22 mph    
Visibility 7 miles    
Events Rain , Thunderstorm    
T = Trace of Precipitation, MM = Missing Value Source: NWS Daily Summary

Daily Weather History Graph

Daily Weather History Graph

Search for Another Location

Airport or City:

Trip Planner

Search our weather history database for the weather conditions in past years. The results will help you decide how hot, cold, wet, or windy it might be!

Date:

Astronomy

Jul. 04, 2014 Rise Set
Actual Time 5:05 AM EDT 8:25 PM EDT
Civil Twilight 4:29 AM EDT 9:01 PM EDT
Nautical Twilight 3:43 AM EDT 9:47 PM EDT
Astronomical Twilight 2:45 AM EDT 10:44 PM EDT
Moon 12:11 PM EDT (7/4) No Moon Set
Length of Visible Light 16h 31m
Length of Day
15h 20m
Waxing Crescent, 42% of the Moon is Illuminated
Jul 4
Waxing Crescent
Jul 5
First Quarter
Jul 12
Full
Jul 18
Last Quarter
Jul 26
New

Hourly Weather History & Observations

Time (EDT) Temp. Dew Point Humidity Pressure Visibility Wind Dir Wind Speed Gust Speed Precip Events Conditions
12:12 AM 68.0 °F 66.0 °F 93% 29.98 in 4.0 mi SW 4.6 mph - 0.10 in Rain Rain
12:41 AM 68.0 °F 66.0 °F 93% 29.95 in 5.0 mi Calm Calm - 0.16 in Rain , Thunderstorm Light Thunderstorms and Rain
12:51 AM 68.0 °F 64.9 °F 90% 29.95 in 6.0 mi Calm Calm - 0.17 in Rain , Thunderstorm Light Thunderstorms and Rain
1:02 AM 68.0 °F 66.0 °F 93% 29.94 in 10.0 mi SSE 4.6 mph - 0.01 in Rain Light Rain
1:51 AM 66.9 °F 66.0 °F 97% 29.88 in 10.0 mi ESE 4.6 mph - 0.01 in   Mostly Cloudy
2:48 AM 66.2 °F 64.4 °F 94% 29.92 in 10.0 mi SSW 8.1 mph - N/A   Partly Cloudy
2:51 AM 66.0 °F 64.9 °F 96% 29.93 in 10.0 mi SSW 10.4 mph - N/A   Scattered Clouds
3:01 AM 66.0 °F 64.0 °F 93% 29.93 in 9.0 mi South 6.9 mph - N/A   Mostly Cloudy
3:19 AM 64.9 °F 64.0 °F 97% 29.93 in 10.0 mi SSW 3.5 mph - N/A   Scattered Clouds
3:51 AM 66.0 °F 64.9 °F 96% 29.94 in 10.0 mi SSW 5.8 mph - N/A   Mostly Cloudy
4:28 AM 66.0 °F 64.0 °F 93% 29.94 in 10.0 mi SSW 3.5 mph - N/A   Partly Cloudy
4:51 AM 66.0 °F 64.0 °F 93% 29.95 in 10.0 mi SW 5.8 mph - N/A   Scattered Clouds
5:11 AM 66.0 °F 64.0 °F 93% 29.96 in 10.0 mi SW 9.2 mph - N/A   Mostly Cloudy
5:51 AM 66.9 °F 64.9 °F 93% 29.98 in 9.0 mi SW 6.9 mph - N/A   Overcast
6:51 AM 68.0 °F 66.0 °F 93% 29.98 in 10.0 mi SW 5.8 mph - N/A   Overcast
7:10 AM 69.1 °F 66.9 °F 93% 29.98 in 10.0 mi SW 5.8 mph - N/A   Mostly Cloudy
7:51 AM 71.1 °F 66.9 °F 87% 29.99 in 10.0 mi SW 4.6 mph - N/A   Mostly Cloudy
8:44 AM 73.0 °F 66.9 °F 81% 29.97 in 10.0 mi WSW 6.9 mph - N/A   Mostly Cloudy
8:51 AM 72.0 °F 66.9 °F 84% 29.97 in 10.0 mi WSW 6.9 mph - N/A   Mostly Cloudy
9:01 AM 72.0 °F 66.9 °F 84% 29.97 in 10.0 mi North - - N/A   Mostly Cloudy
9:51 AM 73.0 °F 66.9 °F 81% 30.00 in 10.0 mi WSW 4.6 mph - N/A   Overcast
10:51 AM 73.0 °F 66.9 °F 81% 29.99 in 10.0 mi WNW 5.8 mph - N/A   Overcast
11:51 AM 73.0 °F 64.9 °F 76% 29.98 in 10.0 mi South 4.6 mph - N/A   Overcast
12:51 PM 69.1 °F 66.0 °F 90% 29.96 in 10.0 mi SSE 9.2 mph - N/A   Mostly Cloudy
1:51 PM 72.0 °F 66.9 °F 84% 29.96 in 10.0 mi Calm Calm - 0.00 in   Overcast
2:51 PM 72.0 °F 68.0 °F 87% 29.96 in 10.0 mi Calm Calm - 0.00 in Rain Light Rain
3:51 PM 68.0 °F 66.0 °F 93% 29.96 in 4.0 mi South 6.9 mph - 0.06 in Rain Rain
4:22 PM 68.0 °F 64.9 °F 90% 29.94 in 5.0 mi East 3.5 mph - 0.04 in Rain Light Rain
4:51 PM 66.9 °F 64.9 °F 93% 29.93 in 7.0 mi East 4.6 mph - 0.08 in Rain Light Rain
5:33 PM 66.9 °F 64.9 °F 93% 29.93 in 3.0 mi Calm Calm - 0.05 in Rain Light Rain
5:51 PM 66.2 °F 64.4 °F 94% 29.94 in 3.0 mi Calm Calm - N/A Rain Rain
6:38 PM 66.9 °F 66.0 °F 97% 29.92 in 2.0 mi Calm Calm - 0.14 in Rain Rain
6:51 PM 66.0 °F 64.9 °F 96% 29.92 in 2.0 mi ENE 4.6 mph - 0.17 in Rain Light Rain
7:51 PM 66.0 °F 64.0 °F 93% 29.90 in 2.0 mi East 4.6 mph - 0.16 in Rain Rain
8:21 PM 64.9 °F 64.0 °F 97% 29.86 in 4.0 mi NNE 9.2 mph - 0.07 in Rain Light Rain
8:51 PM 66.0 °F 64.0 °F 93% 29.86 in 4.0 mi NE 8.1 mph - 0.12 in Rain Light Rain
9:03 PM 66.0 °F 64.0 °F 93% 29.85 in 6.0 mi NE 8.1 mph - 0.01 in Rain Light Rain
9:51 PM 66.2 °F 64.4 °F 94% 29.87 in 4.0 mi NNE 8.1 mph - N/A Rain Rain
10:06 PM 66.0 °F 64.0 °F 93% 29.85 in 4.0 mi NNE 10.4 mph - 0.06 in Rain Rain
10:51 PM 64.4 °F 62.6 °F 94% 29.84 in 4.0 mi NNE 12.7 mph - N/A Rain Rain
11:51 PM 64.4 °F 60.8 °F 88% 29.81 in 5.0 mi NNE 11.5 mph 21.9 mph N/A Rain Rain